Terug naar catalogus

STARLINK-36092

ActiefCommunicatieVLEO
NORAD 66869·PAYLOAD·🇺🇸 United States

Gelanceerd Dec 2, 2025 vanaf Cape Canaveral Space Force Station

Loading…

Volgende Passages (komende 24 uur)

TLE

VersSource: CelesTrak SupGP

Epoch: Sep 15, 2026, 03:26 UTC

1 66869C 25281X   26258.14354167  .00041027  00000+0  14855-2 0  2583
2 66869  43.0035 353.7555 0001654 265.4310 233.7800 15.27568381    12

Volg STARLINK-36092 in realtime met AllMySat

Download on the App Store